Darstellungsparameter: Aktuell verwendete Einstellungen:
Skalierung der Graphiken ... ?
xyx+y,   Skalierungsfaktor:      Skalierung: Modus: x, Faktor: 1
Darstellungszeitraum ... ?
Vom - - bis: - -   Zeitraum: 25.11.2018 - 24.11.2019
Min/Max/Avg-Anzeige ... ?
Zeige MMA aktuell
Zeige MMA Monat
Zeige MMA alles
Zeige --A aktuell
Zeige --A Monat
Zeige --A alles
Keine MMA-Anzeige
MMA:
Average (ber die Originaldaten)
MMA-Basis: 25.11.2018 - 24.11.2019
Quicknavigation für Darstellung... ?
Tage:      1T, 2T, 3T, 5T -1T -2T -3T -5T +1T +2T +3T +5T
Wochen: 1W, 2W, 3W -1W -2W -3W +1W +2W +3W
Monate: 1M, 3M, 6M -1M -3M -6M +1M +3M +6M
Jahre:    1J, 3J, 5J, 10J -1J -3J -5J -10J +1J +3J +5J +10J
Nutze für die Darstellung ... ?
Originaldaten oder ...
Mittelwerte Minima Maxima auf...
Stundenbasis Tagesbasis Wochenbasis
Monatsbasis Jahresbasis      Datenbasis: Mittelwerte auf Tagesbasis
Darstellen als:
Statistik (Auto) Statistik J:M      Darstellung:
Zur Graphik,    zurück zur Übersicht aller Sensoren.
 
Tabellarische Datenbersicht: ?
 
Sensor: Nr:Datum:Temp:Abs-Feuchte:Windchill:Wind:
Aussen-T/F 1 25-11-2018 00:00:00 5.98785 C 6.95 g/m*3 5.99 C 0.51111 km/h
2 26-11-2018 00:00:00 6.65625 C 6.66 g/m*3 6.66 C 1.89167 km/h
3 27-11-2018 00:00:00 4.12465 C 5.37 g/m*3 4.12 C 1.54063 km/h
4 28-11-2018 00:00:00 3.7 C 5.71 g/m*3 3.7 C 1.97951 km/h
5 29-11-2018 00:00:00 5.67875 C 6.59 g/m*3 5.68 C 3.46551 km/h
6 30-11-2018 00:00:00 7.44514 C 7.55 g/m*3 7.45 C 0.94549 km/h
7 01-12-2018 00:00:00 7.48993 C 7.33 g/m*3 7.49 C 2.10972 km/h
8 02-12-2018 00:00:00 11.28056 C 9.48 g/m*3 11.28 C 5.58958 km/h
9 03-12-2018 00:00:00 11.76701 C 10.06 g/m*3 11.77 C 5.55764 km/h
10 04-12-2018 00:00:00 6.48715 C 6.82 g/m*3 6.49 C 3.99167 km/h
11 05-12-2018 00:00:00 3.60729 C 5.96 g/m*3 3.61 C 0.56771 km/h
12 06-12-2018 00:00:00 9.76042 C 8.69 g/m*3 9.45 C 5.09965 km/h
13 07-12-2018 00:00:00 11.22882 C 8.8 g/m*3 11.23 C 13.66111 km/h
14 08-12-2018 00:00:00 7.97361 C 7.3 g/m*3 5.22 C 16.51667 km/h
15 09-12-2018 00:00:00 8.02544 C 7.29 g/m*3 5.82 C 12.63659 km/h
16 10-12-2018 00:00:00 4.96771 C 6.19 g/m*3 3.14 C 7.82257 km/h
17 11-12-2018 00:00:00 3.84375 C 5.9 g/m*3 3.84 C 3.11181 km/h
18 12-12-2018 00:00:00 2.70801 C 5.57 g/m*3 2.71 C 0.53519 km/h
19 13-12-2018 00:00:00 1.36181 C 4.65 g/m*3 1.36 C 2.34931 km/h
20 14-12-2018 00:00:00 1.15521 C 4.06 g/m*3 1.16 C 2.10382 km/h
21 15-12-2018 00:00:00 0.62683 C 3.98 g/m*3 0.63 C 2.64599 km/h
22 16-12-2018 00:00:00 0.77743 C 4.63 g/m*3 0.78 C 1.95799 km/h
23 17-12-2018 00:00:00 4.19722 C 6.11 g/m*3 4.2 C 3.82917 km/h
24 18-12-2018 00:00:00 5.08229 C 6.17 g/m*3 5.08 C 4.64028 km/h
25 19-12-2018 00:00:00 6.54495 C 6.68 g/m*3 6.54 C 2.72125 km/h
Sensor: Nr:Datum:Temp:Abs-Feuchte:Windchill:Wind:
Aussen-T/F 26 20-12-2018 00:00:00 7.58741 C 7.22 g/m*3 6.6 C 6.32797 km/h
27 21-12-2018 00:00:00 10.78507 C 8.54 g/m*3 9.26 C 12.03333 km/h
28 22-12-2018 00:00:00 9.94266 C 8.04 g/m*3 8.86 C 8.38147 km/h
29 23-12-2018 00:00:00 8.60868 C 8.05 g/m*3 7.96 C 5.68715 km/h
30 24-12-2018 00:00:00 4.88924 C 6.13 g/m*3 3.68 C 5.76146 km/h
31 25-12-2018 00:00:00 1.85208 C 5.13 g/m*3 1.85 C 1.84618 km/h
32 26-12-2018 00:00:00 -0.91736 C 4.34 g/m*3 -0.92 C 1.68507 km/h
33 27-12-2018 00:00:00 0.08125 C 4.67 g/m*3 0.08 C 0.02778 km/h
34 28-12-2018 00:00:00 0.225 C 4.67 g/m*3 0.23 C 2.8559 km/h
35 29-12-2018 00:00:00 2.70972 C 5.44 g/m*3 0.67 C 7.23681 km/h
36 30-12-2018 00:00:00 7.50313 C 7 g/m*3 6.22 C 7.39896 km/h
37 31-12-2018 00:00:00 7.59271 C 7.76 g/m*3 7.59 C 2.89201 km/h
38 01-01-2019 00:00:00 7.09271 C 7.18 g/m*3 5.53 C 8.26563 km/h
39 02-01-2019 00:00:00 3.70104 C 5.16 g/m*3 1.4 C 8.7934 km/h
40 03-01-2019 00:00:00 2.03715 C 5.18 g/m*3 2.04 C 1.94688 km/h
41 04-01-2019 00:00:00 3.13785 C 5.52 g/m*3 3.14 C 4.59583 km/h
42 05-01-2019 00:00:00 5.92632 C 6.75 g/m*3 3.71 C 10.2814 km/h
43 06-01-2019 00:00:00 5.76944 C 6.56 g/m*3 4.38 C 6.73993 km/h
44 07-01-2019 00:00:00 5.50417 C 6.31 g/m*3 4.25 C 6.15417 km/h
45 08-01-2019 00:00:00 6.62222 C 6.5 g/m*3 3.51 C 16.75417 km/h
46 09-01-2019 00:00:00 3.90486 C 5.3 g/m*3 0.56 C 14.00139 km/h
47 10-01-2019 00:00:00 2.05694 C 4.67 g/m*3 0.72 C 5.05833 km/h
48 11-01-2019 00:00:00 2.82847 C 5.57 g/m*3 2.83 C 4.89375 km/h
49 12-01-2019 00:00:00 5.96702 C 6.73 g/m*3 3.93 C 9.4367 km/h
50 13-01-2019 00:00:00 7.73715 C 7.65 g/m*3 5.94 C 9.92257 km/h
Sensor: Nr:Datum:Temp:Abs-Feuchte:Windchill:Wind:
Aussen-T/F 51 14-01-2019 00:00:00 5.07083 C 6.11 g/m*3 2.82 C 9.66493 km/h
52 15-01-2019 00:00:00 4.78854 C 5.97 g/m*3 2.87 C 8.06424 km/h
53 16-01-2019 00:00:00 5.27187 C 5.91 g/m*3 3.48 C 7.91701 km/h
54 17-01-2019 00:00:00 5.0066 C 5.94 g/m*3 2.23 C 12.16181 km/h
55 18-01-2019 00:00:00 0.77569 C 4.7 g/m*3 0.78 C 1.61667 km/h
56 19-01-2019 00:00:00 -2.72396 C 3.74 g/m*3 -2.72 C 1.07778 km/h
57 20-01-2019 00:00:00 -4.97187 C 3.17 g/m*3 -4.97 C 0.05556 km/h
58 21-01-2019 00:00:00 -6.20972 C 2.93 g/m*3 -6.21 C 0.21111 km/h
59 22-01-2019 00:00:00 -4.96667 C 3.14 g/m*3 -4.97 C 0.78403 km/h
60 23-01-2019 00:00:00 -1.57743 C 3.88 g/m*3 -1.58 C 1.41597 km/h
61 24-01-2019 00:00:00 -1.91736 C 3.56 g/m*3 -1.92 C 2.39757 km/h
62 25-01-2019 00:00:00 0.28403 C 4.35 g/m*3 -2.25 C 7.52917 km/h
63 26-01-2019 00:00:00 4.48229 C 6.06 g/m*3 1.72 C 11.54896 km/h
64 27-01-2019 00:00:00 5.94583 C 6.52 g/m*3 4.45 C 7.2125 km/h
65 28-01-2019 00:00:00 3.17118 C 5.47 g/m*3 0.05 C 11.95764 km/h
66 29-01-2019 00:00:00 1.73021 C 4.89 g/m*3 1.73 C 3.30972 km/h
67 30-01-2019 00:00:00 0.45972 C 4.67 g/m*3 0.46 C 2.56042 km/h
68 31-01-2019 00:00:00 -0.09826 C 4.56 g/m*3 -0.1 C 0.61181 km/h
69 01-02-2019 00:00:00 1.74826 C 5.22 g/m*3 1.75 C 2.25729 km/h
70 02-02-2019 00:00:00 2.46701 C 5.56 g/m*3 2.47 C 1.11424 km/h
71 03-02-2019 00:00:00 2.7 C 5.17 g/m*3 0.95 C 6.35208 km/h
72 04-02-2019 00:00:00 1.83229 C 4.78 g/m*3 1.83 C 2.03576 km/h
73 05-02-2019 00:00:00 4.34375 C 5.28 g/m*3 4.34 C 3.16076 km/h
74 06-02-2019 00:00:00 1.17639 C 4.73 g/m*3 1.18 C 1.14826 km/h
75 07-02-2019 00:00:00 5.09549 C 6.02 g/m*3 4 C 5.51563 km/h
Sensor: Nr:Datum:Temp:Abs-Feuchte:Windchill:Wind:
Aussen-T/F 76 08-02-2019 00:00:00 7.42604 C 6.65 g/m*3 6.37 C 6.49063 km/h
77 09-02-2019 00:00:00 8.6309 C 6.87 g/m*3 6.27 C 14.69618 km/h
78 10-02-2019 00:00:00 7.96076 C 7.3 g/m*3 5.59 C 13.64931 km/h
79 11-02-2019 00:00:00 4.86736 C 5.83 g/m*3 2.86 C 8.45313 km/h
80 12-02-2019 00:00:00 3.71597 C 5.41 g/m*3 2.47 C 5.38715 km/h
81 13-02-2019 00:00:00 1.77951 C 5.01 g/m*3 1.78 C 1.55556 km/h
82 14-02-2019 00:00:00 0.77431 C 4.74 g/m*3 0.77 C 0.18889 km/h
83 15-02-2019 00:00:00 2.33854 C 5.08 g/m*3 2.34 C 1.52292 km/h
84 16-02-2019 00:00:00 3.375 C 5.4 g/m*3 3.38 C 1.05 km/h
85 17-02-2019 00:00:00 3.45451 C 5.51 g/m*3 3.45 C 0.85556 km/h
86 18-02-2019 00:00:00 3.69653 C 5.41 g/m*3 3.7 C 0.08889 km/h
87 19-02-2019 00:00:00 5.85868 C 6.31 g/m*3 5.86 C 4.05208 km/h
88 20-02-2019 00:00:00 4.70694 C 5.94 g/m*3 4.71 C 3.82396 km/h
89 21-02-2019 00:00:00 6.3625 C 6.69 g/m*3 6.36 C 1.91701 km/h
90 22-02-2019 00:00:00 9.91111 C 8.23 g/m*3 9.91 C 1.74063 km/h
91 23-02-2019 00:00:00 5.41076 C 5.5 g/m*3 5.41 C 2.82049 km/h
92 24-02-2019 00:00:00 3.39271 C 4.46 g/m*3 3.39 C 1.06285 km/h
93 25-02-2019 00:00:00 5.05139 C 5.05 g/m*3 5.05 C 0.85556 km/h
94 26-02-2019 00:00:00 6.18646 C 5.89 g/m*3 6.19 C 0.7 km/h
95 27-02-2019 00:00:00 6.63576 C 6.02 g/m*3 6.64 C 0.66771 km/h
96 28-02-2019 00:00:00 8.81701 C 6.88 g/m*3 7.56 C 8.26389 km/h
97 01-03-2019 00:00:00 8.12708 C 7.67 g/m*3 7.6 C 5.08299 km/h
98 02-03-2019 00:00:00 8.64236 C 7.33 g/m*3 7.51 C 7.58333 km/h
99 03-03-2019 00:00:00 11.11319 C 8.07 g/m*3 11.11 C 14.64375 km/h
100 04-03-2019 00:00:00 9.71875 C 7.23 g/m*3 7.28 C 17.49583 km/h
Sensor: Nr:Datum:Temp:Abs-Feuchte:Windchill:Wind:
Aussen-T/F 101 05-03-2019 00:00:00 6.87396 C 6.27 g/m*3 4.69 C 11.10174 km/h
102 06-03-2019 00:00:00 10.01944 C 7.43 g/m*3 10.02 C 3.02014 km/h
103 07-03-2019 00:00:00 10.20729 C 7.54 g/m*3 8.16 C 15.05764 km/h
104 08-03-2019 00:00:00 8.18854 C 6.62 g/m*3 6.16 C 11.77465 km/h
105 09-03-2019 00:00:00 10.36875 C 7.38 g/m*3 8.07 C 17.70694 km/h
106 10-03-2019 00:00:00 9.55694 C 7.02 g/m*3 7.36 C 15.05556 km/h
107 11-03-2019 00:00:00 4.7934 C 5.35 g/m*3 2 C 12.03646 km/h
108 12-03-2019 00:00:00 6.61563 C 5.3 g/m*3 5.21 C 7.28958 km/h
109 13-03-2019 00:00:00 6.20382 C 6.09 g/m*3 3.06 C 16.23264 km/h
110 14-03-2019 00:00:00 7.03611 C 6.78 g/m*3 4.51 C 13.30313 km/h
111 15-03-2019 00:00:00 10.13993 C 8.27 g/m*3 8.37 C 12.83368 km/h
112 16-03-2019 00:00:00 10.23472 C 8.16 g/m*3 8.5 C 12.67083 km/h
113 17-03-2019 00:00:00 8.66319 C 6.71 g/m*3 6.38 C 14.17535 km/h
114 18-03-2019 00:00:00 4.96458 C 5.77 g/m*3 3.21 C 7.55799 km/h
115 19-03-2019 00:00:00 3.83715 C 5.06 g/m*3 3.84 C 1.64375 km/h
116 20-03-2019 00:00:00 5.47951 C 5.42 g/m*3 5.48 C 1.55972 km/h
117 21-03-2019 00:00:00 7.53194 C 5.9 g/m*3 7.53 C 2.00347 km/h
118 22-03-2019 00:00:00 9.15799 C 6.43 g/m*3 9.16 C 2.43438 km/h
119 23-03-2019 00:00:00 6.18576 C 6.43 g/m*3 6.19 C 3.01458 km/h
120 24-03-2019 00:00:00 6.4583 C 6.26 g/m*3 6.46 C 4.16421 km/h
121 25-03-2019 00:00:00 5.13299 C 5.9 g/m*3 3.06 C 8.93264 km/h
122 26-03-2019 00:00:00 6.64792 C 6.18 g/m*3 6.65 C 4.81042 km/h
123 27-03-2019 00:00:00 6.81528 C 6.18 g/m*3 6.82 C 2.65556 km/h
124 28-03-2019 00:00:00 7.32535 C 6.47 g/m*3 7.33 C 2.7125 km/h
125 29-03-2019 00:00:00 8.96493 C 6.97 g/m*3 8.96 C 3.02431 km/h
Sensor: Nr:Datum:Temp:Abs-Feuchte:Windchill:Wind:
Aussen-T/F 126 30-03-2019 00:00:00 10.50104 C 7.06 g/m*3 10.5 C 3.54861 km/h
127 31-03-2019 00:00:00 10.31594 C 7.68 g/m*3 10.32 C 2.38623 km/h
128 01-04-2019 00:00:00 9.41771 C 6.81 g/m*3 9.42 C 4.33194 km/h
129 02-04-2019 00:00:00 10.74375 C 7.5 g/m*3 10.74 C 3.93194 km/h
130 03-04-2019 00:00:00 8.37083 C 7.36 g/m*3 8.37 C 1.94549 km/h
131 04-04-2019 00:00:00 6.05799 C 6.79 g/m*3 6.06 C 1.46458 km/h
132 05-04-2019 00:00:00 6.32535 C 6.83 g/m*3 6.33 C 1.74236 km/h
133 06-04-2019 00:00:00 10.20313 C 7.94 g/m*3 10.2 C 2.74479 km/h
134 07-04-2019 00:00:00 12.02083 C 8.01 g/m*3 12.02 C 3.89306 km/h
135 08-04-2019 00:00:00 12.69757 C 9.48 g/m*3 12.7 C 1.27882 km/h
136 09-04-2019 00:00:00 12.23472 C 9.56 g/m*3 12.23 C 1.83854 km/h
137 10-04-2019 00:00:00 10.80035 C 6.51 g/m*3 10.19 C 6.83542 km/h
138 11-04-2019 00:00:00 6.94306 C 4.71 g/m*3 5.69 C 6.93681 km/h
139 12-04-2019 00:00:00 5.01528 C 4.01 g/m*3 3.21 C 7.79861 km/h
140 13-04-2019 00:00:00 3.85556 C 4.76 g/m*3 3.86 C 4.46007 km/h
141 14-04-2019 00:00:00 5.53576 C 5.39 g/m*3 5.54 C 4.95521 km/h
142 15-04-2019 00:00:00 10.42187 C 6.72 g/m*3 9.97 C 5.95938 km/h
143 16-04-2019 00:00:00 11.20417 C 6.8 g/m*3 11.2 C 4.46493 km/h
144 17-04-2019 00:00:00 12.74861 C 9.36 g/m*3 12.75 C 3.09826 km/h
145 18-04-2019 00:00:00 14.16528 C 7.93 g/m*3 14.17 C 5.55069 km/h
146 19-04-2019 00:00:00 15.41285 C 7.41 g/m*3 15.41 C 5.63056 km/h
147 20-04-2019 00:00:00 14.87153 C 7.8 g/m*3 14.87 C 3.90382 km/h
148 21-04-2019 00:00:00 15.62813 C 7.79 g/m*3 15.63 C 3.06354 km/h
149 22-04-2019 00:00:00 14.99375 C 7.63 g/m*3 14.99 C 5.28368 km/h
150 23-04-2019 00:00:00 15.15903 C 7.91 g/m*3 15.16 C 4.94722 km/h
Sensor: Nr:Datum:Temp:Abs-Feuchte:Windchill:Wind:
Aussen-T/F 151 24-04-2019 00:00:00 15.11424 C 9.44 g/m*3 15.11 C 4.87222 km/h
152 25-04-2019 00:00:00 13.28785 C 9.06 g/m*3 13.29 C 4.63819 km/h
153 26-04-2019 00:00:00 11.86806 C 8.86 g/m*3 11.87 C 3.58854 km/h
154 27-04-2019 00:00:00 9.34688 C 8.09 g/m*3 9.35 C 3.60451 km/h
155 28-04-2019 00:00:00 8.50208 C 7.09 g/m*3 7.78 C 5.90139 km/h
156 29-04-2019 00:00:00 8.56736 C 7.24 g/m*3 8.57 C 3.78993 km/h
157 30-04-2019 00:00:00 14.05278 C 8.31 g/m*3 14.05 C 7.74514 km/h
158 01-05-2019 00:00:00 12.7816 C 8.54 g/m*3 12.78 C 3.63056 km/h
159 02-05-2019 00:00:00 11.4566 C 8.27 g/m*3 11.46 C 4.02083 km/h
160 03-05-2019 00:00:00 11.00208 C 7.34 g/m*3 11 C 7.49826 km/h
161 04-05-2019 00:00:00 6.36493 C 6.26 g/m*3 5.1 C 6.63958 km/h
162 05-05-2019 00:00:00 6.67882 C 6.18 g/m*3 5.85 C 5.38264 km/h
163 06-05-2019 00:00:00 7.62465 C 6.22 g/m*3 7.62 C 3.69722 km/h
164 07-05-2019 00:00:00 9.6066 C 6.76 g/m*3 9.61 C 2.54444 km/h
165 08-05-2019 00:00:00 9.41667 C 8.02 g/m*3 9.42 C 1.87639 km/h
166 09-05-2019 00:00:00 11.20938 C 9.02 g/m*3 11.21 C 3.33472 km/h
167 10-05-2019 00:00:00 12.49306 C 8.53 g/m*3 12.49 C 5.40625 km/h
168 11-05-2019 00:00:00 10.05833 C 8.78 g/m*3 10.06 C 3.22396 km/h
169 12-05-2019 00:00:00 9.40625 C 6.58 g/m*3 8.58 C 6.83229 km/h
170 13-05-2019 00:00:00 9.96736 C 5.78 g/m*3 9.46 C 5.88368 km/h
171 14-05-2019 00:00:00 9.58299 C 5.9 g/m*3 9.1 C 5.62465 km/h
172 15-05-2019 00:00:00 9.79896 C 5.66 g/m*3 9.32 C 5.69444 km/h
173 16-05-2019 00:00:00 10.83854 C 6.98 g/m*3 10.84 C 4.89201 km/h
174 17-05-2019 00:00:00 11.60069 C 9.3 g/m*3 11.6 C 2.49271 km/h
175 18-05-2019 00:00:00 14.44306 C 10.6 g/m*3 14.44 C 1.72396 km/h
Sensor: Nr:Datum:Temp:Abs-Feuchte:Windchill:Wind:
Aussen-T/F 176 19-05-2019 00:00:00 15.85694 C 11.29 g/m*3 15.86 C 3.36146 km/h
177 20-05-2019 00:00:00 13.90347 C 10.77 g/m*3 13.9 C 5.82431 km/h
178 21-05-2019 00:00:00 12.49722 C 10.23 g/m*3 12.5 C 8.26007 km/h
179 22-05-2019 00:00:00 13.38785 C 9.39 g/m*3 13.39 C 5.53958 km/h
180 23-05-2019 00:00:00 15.11875 C 9.58 g/m*3 15.12 C 2.43056 km/h
181 24-05-2019 00:00:00 16.93437 C 10.22 g/m*3 16.93 C 2.5066 km/h
182 25-05-2019 00:00:00 15.60035 C 8.97 g/m*3 15.6 C 4.91111 km/h
183 26-05-2019 00:00:00 15.92014 C 10.1 g/m*3 15.92 C 5.11042 km/h
184 27-05-2019 00:00:00 14.98924 C 11.65 g/m*3 14.99 C 1.43229 km/h
185 28-05-2019 00:00:00 13.95729 C 10.24 g/m*3 13.96 C 5.32535 km/h
186 29-05-2019 00:00:00 14.97951 C 8.74 g/m*3 14.98 C 4.30938 km/h
187 30-05-2019 00:00:00 15.62396 C 10.46 g/m*3 15.62 C 4.33958 km/h
188 31-05-2019 00:00:00 19.22674 C 12.25 g/m*3 19.23 C 4.08021 km/h
189 01-06-2019 00:00:00 19.98924 C 12.83 g/m*3 19.99 C 2.98229 km/h
190 02-06-2019 00:00:00 22.09028 C 13.76 g/m*3 22.09 C 2.70833 km/h
191 03-06-2019 00:00:00 20.85625 C 13.34 g/m*3 20.86 C 3.51354 km/h
192 04-06-2019 00:00:00 21.5059 C 13.89 g/m*3 21.51 C 3.54063 km/h
193 05-06-2019 00:00:00 23.45243 C 14.31 g/m*3 23.45 C 2.78264 km/h
194 06-06-2019 00:00:00 15.94271 C 10.67 g/m*3 15.94 C 8.29931 km/h
195 07-06-2019 00:00:00 15.6809 C 10.21 g/m*3 15.68 C 6.49722 km/h
196 08-06-2019 00:00:00 16.15243 C 8.63 g/m*3 16.15 C 11.89271 km/h
197 09-06-2019 00:00:00 16.23438 C 10.07 g/m*3 16.23 C 3.25729 km/h
198 10-06-2019 00:00:00 19.2684 C 12.22 g/m*3 19.27 C 4.23958 km/h
199 11-06-2019 00:00:00 17.19063 C 12.22 g/m*3 17.19 C 1.59271 km/h
200 12-06-2019 00:00:00 16.48854 C 11.55 g/m*3 16.49 C 4.25868 km/h
Sensor: Nr:Datum:Temp:Abs-Feuchte:Windchill:Wind:
Aussen-T/F 201 13-06-2019 00:00:00 15.92743 C 10.25 g/m*3 15.93 C 5.36042 km/h
202 14-06-2019 00:00:00 17.88507 C 12.61 g/m*3 17.89 C 1.74688 km/h
203 15-06-2019 00:00:00 19.62083 C 13.41 g/m*3 19.62 C 4.74444 km/h
204 16-06-2019 00:00:00 19.34479 C 11.88 g/m*3 19.34 C 4.13576 km/h
205 17-06-2019 00:00:00 18.93646 C 11.87 g/m*3 18.94 C 2.29132 km/h
206 18-06-2019 00:00:00 21.4625 C 13.68 g/m*3 21.46 C 1.57014 km/h
207 19-06-2019 00:00:00 22.17049 C 14.37 g/m*3 22.17 C 2.86354 km/h
208 20-06-2019 00:00:00 19.48229 C 13.47 g/m*3 19.48 C 5.3566 km/h
209 21-06-2019 00:00:00 18.55694 C 10.86 g/m*3 18.56 C 4.43056 km/h
210 22-06-2019 00:00:00 19.16771 C 11.45 g/m*3 19.17 C 4.30556 km/h
211 23-06-2019 00:00:00 21.78854 C 13.72 g/m*3 21.79 C 4.22083 km/h
212 24-06-2019 00:00:00 24.3809 C 15.34 g/m*3 24.38 C 4.76389 km/h
213 25-06-2019 00:00:00 26.30625 C 16.26 g/m*3 26.31 C 3.02049 km/h
214 26-06-2019 00:00:00 27.27336 C 17.1 g/m*3 27.27 C 5.13686 km/h
215 27-06-2019 00:00:00 24.42326 C 13.08 g/m*3 24.42 C 7.55694 km/h
216 28-06-2019 00:00:00 21.63368 C 11.43 g/m*3 21.63 C 3.73438 km/h
217 29-06-2019 00:00:00 24.00937 C 11.62 g/m*3 24.01 C 4.35069 km/h
218 30-06-2019 00:00:00 25.32014 C 14.64 g/m*3 25.32 C 5.88368 km/h
219 01-07-2019 00:00:00 22.68715 C 12.25 g/m*3 22.69 C 6.96285 km/h
220 02-07-2019 00:00:00 19.04306 C 9.98 g/m*3 19.04 C 5.46042 km/h
221 03-07-2019 00:00:00 17.43472 C 9.08 g/m*3 17.43 C 5.33542 km/h
222 04-07-2019 00:00:00 18.23021 C 8.79 g/m*3 18.23 C 3.81493 km/h
223 05-07-2019 00:00:00 20.73889 C 10.2 g/m*3 20.74 C 4.43368 km/h
224 06-07-2019 00:00:00 21.18681 C 11.39 g/m*3 21.19 C 5.94097 km/h
225 07-07-2019 00:00:00 17.78763 C 10.32 g/m*3 17.79 C 7.32191 km/h
Sensor: Nr:Datum:Temp:Abs-Feuchte:Windchill:Wind:
Aussen-T/F 226 08-07-2019 00:00:00 14.44931 C 8.79 g/m*3 14.45 C 4.8625 km/h
227 09-07-2019 00:00:00 15.40868 C 8.69 g/m*3 15.41 C 4.71875 km/h
228 10-07-2019 00:00:00 16.98854 C 8.38 g/m*3 16.99 C 3.84063 km/h
229 11-07-2019 00:00:00 17.76076 C 12.08 g/m*3 17.76 C 1.31076 km/h
230 12-07-2019 00:00:00 17.3375 C 13.59 g/m*3 17.34 C 2.32014 km/h
231 13-07-2019 00:00:00 17.99896 C 12.82 g/m*3 18 C 5.50243 km/h
232 14-07-2019 00:00:00 16.92569 C 10.89 g/m*3 16.93 C 6.91632 km/h
233 15-07-2019 00:00:00 16.34757 C 10.29 g/m*3 16.35 C 5.29444 km/h
234 16-07-2019 00:00:00 16.0375 C 10.29 g/m*3 16.04 C 4.47083 km/h
235 17-07-2019 00:00:00 17.21979 C 11.18 g/m*3 17.22 C 4.45729 km/h
236 18-07-2019 00:00:00 19.06944 C 12.13 g/m*3 19.07 C 1.90972 km/h
237 19-07-2019 00:00:00 20.2441 C 13.63 g/m*3 20.24 C 3.12847 km/h
238 20-07-2019 00:00:00 21.61736 C 14.28 g/m*3 21.62 C 4.16285 km/h
239 21-07-2019 00:00:00 21.96076 C 13.31 g/m*3 21.96 C 4.91736 km/h
240 22-07-2019 00:00:00 22.29861 C 13.03 g/m*3 22.3 C 3.24618 km/h
241 23-07-2019 00:00:00 25.05139 C 14.22 g/m*3 25.05 C 3.35556 km/h
242 24-07-2019 00:00:00 27.05069 C 14.88 g/m*3 27.05 C 2.26354 km/h
243 25-07-2019 00:00:00 28.69028 C 15.13 g/m*3 28.69 C 3.17882 km/h
244 26-07-2019 00:00:00 27.21528 C 14.6 g/m*3 27.22 C 3.0809 km/h
245 27-07-2019 00:00:00 23.20069 C 16.62 g/m*3 23.2 C 3.61389 km/h
246 28-07-2019 00:00:00 19.86597 C 15.53 g/m*3 19.87 C 3.90104 km/h
247 29-07-2019 00:00:00 21.16354 C 13.61 g/m*3 21.16 C 3.65556 km/h
248 30-07-2019 00:00:00 21.86528 C 12.82 g/m*3 21.87 C 5.2809 km/h
249 31-07-2019 00:00:00 21.06111 C 11.17 g/m*3 21.06 C 6.26354 km/h
250 01-08-2019 00:00:00 19.46424 C 10.98 g/m*3 19.46 C 3.89688 km/h
Sensor: Nr:Datum:Temp:Abs-Feuchte:Windchill:Wind:
Aussen-T/F 251 02-08-2019 00:00:00 20.52743 C 12.45 g/m*3 20.53 C 3.30556 km/h
252 03-08-2019 00:00:00 20.39271 C 12.83 g/m*3 20.39 C 8.72292 km/h
253 04-08-2019 00:00:00 20.53854 C 12.19 g/m*3 20.54 C 2.86389 km/h
254 05-08-2019 00:00:00 22.56562 C 13.5 g/m*3 22.57 C 4.09653 km/h
255 06-08-2019 00:00:00 19.97604 C 13.81 g/m*3 19.98 C 3.64132 km/h
256 07-08-2019 00:00:00 19.07535 C 14.31 g/m*3 19.08 C 3.07153 km/h
257 08-08-2019 00:00:00 20.39132 C 13.35 g/m*3 20.39 C 5.46944 km/h
258 09-08-2019 00:00:00 19.85833 C 14.88 g/m*3 19.86 C 0.79236 km/h
259 10-08-2019 00:00:00 20.67986 C 13.9 g/m*3 20.68 C 7.7059 km/h
260 11-08-2019 00:00:00 16.99444 C 11.7 g/m*3 16.99 C 2.95174 km/h
261 12-08-2019 00:00:00 16.4441 C 11.84 g/m*3 16.44 C 3.65278 km/h
262 13-08-2019 00:00:00 15.94306 C 10.67 g/m*3 15.94 C 5.33403 km/h
263 14-08-2019 00:00:00 16.52882 C 10.69 g/m*3 16.53 C 3.79861 km/h
264 15-08-2019 00:00:00 17.34306 C 13.07 g/m*3 17.34 C 5.15139 km/h
265 16-08-2019 00:00:00 17.72257 C 12.19 g/m*3 17.72 C 5.73264 km/h
266 17-08-2019 00:00:00 18.07049 C 13.36 g/m*3 18.07 C 2.66632 km/h
267 18-08-2019 00:00:00 19.8941 C 15.51 g/m*3 19.89 C 4.75694 km/h
268 19-08-2019 00:00:00 18.3684 C 12.23 g/m*3 18.37 C 4.84549 km/h
269 20-08-2019 00:00:00 15.78611 C 10.76 g/m*3 15.79 C 1.24618 km/h
270 21-08-2019 00:00:00 16.52222 C 10.61 g/m*3 16.52 C 1.51736 km/h
271 22-08-2019 00:00:00 17.27465 C 10.64 g/m*3 17.27 C 1.60208 km/h
272 23-08-2019 00:00:00 18.44792 C 11.19 g/m*3 18.45 C 2.36632 km/h
273 24-08-2019 00:00:00 19.52326 C 11.88 g/m*3 19.52 C 2.67396 km/h
274 25-08-2019 00:00:00 21.57431 C 14.28 g/m*3 21.57 C 1.39479 km/h
275 26-08-2019 00:00:00 22.3684 C 15.94 g/m*3 22.37 C 0.85174 km/h
Sensor: Nr:Datum:Temp:Abs-Feuchte:Windchill:Wind:
Aussen-T/F 276 27-08-2019 00:00:00 22.81979 C 16.16 g/m*3 22.82 C 0.89201 km/h
277 28-08-2019 00:00:00 23.38924 C 15.36 g/m*3 23.39 C 3.07813 km/h
278 29-08-2019 00:00:00 22.04201 C 14.97 g/m*3 22.04 C 3.15764 km/h
279 30-08-2019 00:00:00 21.0059 C 13.28 g/m*3 21.01 C 1.87778 km/h
280 31-08-2019 00:00:00 22.0566 C 14.04 g/m*3 22.06 C 2.34618 km/h
281 01-09-2019 00:00:00 18.73056 C 12.21 g/m*3 18.73 C 4.84896 km/h
282 02-09-2019 00:00:00 15.43958 C 8.93 g/m*3 15.44 C 2.90972 km/h
283 03-09-2019 00:00:00 15.68611 C 9.42 g/m*3 15.69 C 3.81736 km/h
284 04-09-2019 00:00:00 16.83646 C 11.04 g/m*3 16.84 C 5.32361 km/h
285 05-09-2019 00:00:00 15.41285 C 9.85 g/m*3 15.41 C 6.91979 km/h
286 06-09-2019 00:00:00 13.54271 C 8.36 g/m*3 13.54 C 2.30035 km/h
287 07-09-2019 00:00:00 12.95382 C 9.82 g/m*3 12.95 C 1.11875 km/h
288 08-09-2019 00:00:00 12.67778 C 10.48 g/m*3 12.68 C 1.02292 km/h
289 09-09-2019 00:00:00 12.50868 C 9.95 g/m*3 12.51 C 0.62222 km/h
290 10-09-2019 00:00:00 11.86563 C 9.01 g/m*3 11.87 C 1.27153 km/h
291 11-09-2019 00:00:00 13.34931 C 9.38 g/m*3 13.35 C 3.32083 km/h
292 12-09-2019 00:00:00 19.07292 C 12.83 g/m*3 19.07 C 5.07257 km/h
293 13-09-2019 00:00:00 17.76319 C 13.35 g/m*3 17.76 C 2.56076 km/h
294 14-09-2019 00:00:00 15.58229 C 10.78 g/m*3 15.58 C 1.03194 km/h
295 15-09-2019 00:00:00 15.40243 C 10.32 g/m*3 15.4 C 0.29444 km/h
296 16-09-2019 00:00:00 16.09444 C 10.79 g/m*3 16.09 C 2.79514 km/h
297 17-09-2019 00:00:00 15.6191 C 9.81 g/m*3 15.62 C 7.71493 km/h
298 18-09-2019 00:00:00 11.41215 C 7.6 g/m*3 11.41 C 3.00799 km/h
299 19-09-2019 00:00:00 10.47361 C 7.22 g/m*3 10.47 C 2.36771 km/h
300 20-09-2019 00:00:00 10.72153 C 7.12 g/m*3 10.72 C 2.07396 km/h
Sensor: Nr:Datum:Temp:Abs-Feuchte:Windchill:Wind:
Aussen-T/F 301 21-09-2019 00:00:00 12.32465 C 7.54 g/m*3 12.32 C 1.46806 km/h
302 22-09-2019 00:00:00 14.8625 C 9.65 g/m*3 14.86 C 0.47778 km/h
303 23-09-2019 00:00:00 16.54479 C 11.93 g/m*3 16.54 C 4.12674 km/h
304 24-09-2019 00:00:00 14.13194 C 10.98 g/m*3 14.13 C 0.63611 km/h
305 25-09-2019 00:00:00 15.26806 C 11.83 g/m*3 15.27 C 3.64549 km/h
306 26-09-2019 00:00:00 16.26111 C 12.83 g/m*3 16.26 C 2.32917 km/h
307 27-09-2019 00:00:00 16.20451 C 11.99 g/m*3 16.2 C 6.36285 km/h
308 28-09-2019 00:00:00 15.30903 C 11.1 g/m*3 15.31 C 9.7816 km/h
309 29-09-2019 00:00:00 16.12778 C 11.4 g/m*3 16.13 C 9.27535 km/h
310 30-09-2019 00:00:00 15.31424 C 10.49 g/m*3 15.31 C 11.19965 km/h
311 01-10-2019 00:00:00 15.98125 C 12.01 g/m*3 15.98 C 6.38333 km/h
312 02-10-2019 00:00:00 12.49479 C 9.13 g/m*3 12.49 C 7.54097 km/h
313 03-10-2019 00:00:00 9.77535 C 8.39 g/m*3 9.78 C 2.6566 km/h
314 04-10-2019 00:00:00 10.31563 C 9.12 g/m*3 10.32 C 2.49479 km/h
315 05-10-2019 00:00:00 10.64965 C 8.61 g/m*3 10.65 C 3.49583 km/h
316 06-10-2019 00:00:00 8.34063 C 8.11 g/m*3 8.34 C 0.84097 km/h
317 07-10-2019 00:00:00 10.09167 C 8.92 g/m*3 10.09 C 1.20799 km/h
318 08-10-2019 00:00:00 12.83333 C 10.63 g/m*3 12.83 C 5.34132 km/h
319 09-10-2019 00:00:00 11.68715 C 9.67 g/m*3 11.69 C 6.15069 km/h
320 10-10-2019 00:00:00 11.67509 C 9.02 g/m*3 11.68 C 7.65474 km/h
321 11-10-2019 00:00:00 12.72361 C 9.95 g/m*3 12.72 C 4.43958 km/h
322 12-10-2019 00:00:00 13.63368 C 10.51 g/m*3 13.63 C 3.71458 km/h
323 13-10-2019 00:00:00 16.44722 C 12.77 g/m*3 16.45 C 0.84688 km/h
324 14-10-2019 00:00:00 16.00938 C 12.22 g/m*3 16.01 C 0.57951 km/h
325 15-10-2019 00:00:00 14.32674 C 11.35 g/m*3 14.33 C 1.88889 km/h
Sensor: Nr:Datum:Temp:Abs-Feuchte:Windchill:Wind:
Aussen-T/F 326 16-10-2019 00:00:00 12.65347 C 10.45 g/m*3 12.65 C 2.06354 km/h
327 17-10-2019 00:00:00 14.64826 C 11.42 g/m*3 14.65 C 2.20521 km/h
328 18-10-2019 00:00:00 12.52604 C 10.1 g/m*3 12.53 C 3.73403 km/h
329 19-10-2019 00:00:00 12.88561 C 10.24 g/m*3 12.89 C 1.25396 km/h
330 20-10-2019 00:00:00 13.60139 C 11.48 g/m*3 13.6 C 0.10592 km/h
331 21-10-2019 00:00:00 13.67735 C 11.06 g/m*3 13.68 C 1.77735 km/h
332 22-10-2019 00:00:00 11.49819 C 9.49 g/m*3 11.5 C 0.65884 km/h
333 23-10-2019 00:00:00 11.05972 C 9.52 g/m*3 11.06 C 1.19514 km/h
334 24-10-2019 00:00:00 14.06458 C 11.16 g/m*3 14.06 C 0.74618 km/h
335 25-10-2019 00:00:00 13.32951 C 10.11 g/m*3 13.33 C 3.23785 km/h
336 26-10-2019 00:00:00 13.17604 C 10.48 g/m*3 13.18 C 0.73993 km/h
337 27-10-2019 00:00:00 10.25174 C 8.89 g/m*3 10.25 C 2.11736 km/h
338 28-10-2019 00:00:00 6.33854 C 7.18 g/m*3 6.34 C 0.77847 km/h
339 29-10-2019 00:00:00 6.56632 C 6.94 g/m*3 6.57 C 1.2191 km/h
340 30-10-2019 00:00:00 3.52778 C 5.79 g/m*3 3.53 C 0.38368 km/h
341 31-10-2019 00:00:00 2.23438 C 5.28 g/m*3 2.23 C 0.67396 km/h
342 01-11-2019 00:00:00 6.02465 C 6.99 g/m*3 6.02 C 0.48958 km/h
343 02-11-2019 00:00:00 13.19792 C 10.36 g/m*3 13.2 C 6.07292 km/h
344 03-11-2019 00:00:00 11.85035 C 9.69 g/m*3 11.85 C 1.69514 km/h
345 04-11-2019 00:00:00 10.33333 C 8.92 g/m*3 10.33 C 3.08403 km/h
346 05-11-2019 00:00:00 9.70972 C 8.25 g/m*3 9.71 C 2.63854 km/h
347 06-11-2019 00:00:00 8.97569 C 8.38 g/m*3 8.98 C 1.65278 km/h
348 07-11-2019 00:00:00 7.93611 C 7.85 g/m*3 7.94 C 1.98715 km/h
349 08-11-2019 00:00:00 4.99444 C 6.56 g/m*3 4.99 C 0.32778 km/h
350 09-11-2019 00:00:00 4.99167 C 6.39 g/m*3 4.99 C 3.73299 km/h
Sensor: Nr:Datum:Temp:Abs-Feuchte:Windchill:Wind:
Aussen-T/F 351 10-11-2019 00:00:00 3.02188 C 5.69 g/m*3 3.02 C 1.31146 km/h
352 11-11-2019 00:00:00 4.67986 C 6.09 g/m*3 4.68 C 3.38854 km/h
353 12-11-2019 00:00:00 5.9125 C 6.37 g/m*3 5.91 C 4.80729 km/h
354 13-11-2019 00:00:00 5.47431 C 6.19 g/m*3 5.47 C 3.37118 km/h
355 14-11-2019 00:00:00 5.50729 C 6.04 g/m*3 5.51 C 1.95556 km/h
356 15-11-2019 00:00:00 4.68958 C 5.87 g/m*3 4.69 C 1.32639 km/h
357 16-11-2019 00:00:00 2.11389 C 5.35 g/m*3 2.11 C 0.59444 km/h
358 17-11-2019 00:00:00 3.09271 C 5.81 g/m*3 3.09 C 1.22049 km/h
359 18-11-2019 00:00:00 4.31181 C 6.25 g/m*3 4.31 C 4.39097 km/h
360 19-11-2019 00:00:00 3.99132 C 6.02 g/m*3 3.99 C 3.26597 km/h
361 20-11-2019 00:00:00 1.59583 C 5.12 g/m*3 1.6 C 1.20972 km/h
362 21-11-2019 00:00:00 1.90833 C 5.3 g/m*3 1.91 C 0.25556 km/h
363 22-11-2019 00:00:00 4.39097 C 6.22 g/m*3 4.39 C 2.3066 km/h
364 23-11-2019 00:00:00 5.38785 C 6.48 g/m*3 5.39 C 1.74201 km/h
365 24-11-2019 00:00:00 2.90104 C 5.74 g/m*3 2.9 C 0.06111 km/h

Maximal/Minimal-Werte vom 25.11.2018 - 24.11.2019

Sensor Min Max Avg
Temp
(Aussen-T/F)
-8.8 °C
22-01-2019  06:35:00
40.4 °C
25-07-2019  16:20:00
11.36 °C
Abs-Feuchte
(Aussen-T/F)
2.93 g/m*3
21-01-2019  00:00:00
17.1 g/m*3
26-06-2019  00:00:00
8.72 g/m*3
Windchill
(Aussen-T/F)
-6.21 C
21-01-2019  00:00:00
28.69 C
25-07-2019  00:00:00
11.02 C

Die Daten stammen von einer Davis Vantage Pro 2 Wetter-Station und werden unter Linux mit der Software wview2wettercgi und aufbereitet. Alle Angaben erfolgen ohne Gewähr für ihre Vollständigkeit oder Richtigkeit.
Kontakt: Rainer Krienke krienke@uni-koblenz.de . Meine Webseiten an der Uni Koblenz oder privat.
Version: $Revision: 0.78 $